Location: site
(53.0000°N, 23.0500°E)
Time: 19:30:49
(UTC+01:00)

SAOCOM 1-A - Pass Details

Date: 07 December 2020
Orbit: 621 x 623 km, 97.9° (Epoch: 24 January)

Event Time Altitude Azimuth Distance (km) Brightness Sun altitude
Exits shadow 17:11:37 28° 102° (ESE) 1,174 ? -16.8°
Drops below altitude 10° 17:15:05 10° 154° (SSE) 1,991 ? -17.3°
Sets 17:17:30 0° 166° (SSE) 2,892 ? -17.7°
